Regional Weather Roundup
Issued by NWS

Home | Current Version | Previous Version | Text Only | Print | Product List | Glossary On
Versions: 1 2 3 4 5 6 7 8 9 10 11 12 13 14 15 16 17 18 19 20 21 22 23 24 25 26 27 28 29 30 31 32 33 34 35 36 37 38 39 40 41 42 43 44 45 46 47 48 49 50
000
ASUS45 KBOU 062210
RWRCO

WEATHER ROUNDUP FOR COLORADO
NATIONAL WEATHER SERVICE DENVER/BOULDER CO
400 PM MDT MON JUL 06 2015

NOTE: "FAIR" INDICATES FEW OR NO CLOUDS BELOW 12000 FEET WITH NO
SIGNIFICANT WEATHER AND/OR OBSTRUCTIONS TO VISIBILITY.

COZ001>005-013-030-031-062300-
...NORTHWEST COLORADO...

CITY           SKY/WX    TMP DP  RH WIND       PRES   REMARKS
CRAIG          PTSUNNY   78  50  37 CALM      30.18F
HAYDEN         MOSUNNY   75  45  33 CALM      30.21F
MEEKER         PTSUNNY   75  53  46 SE7       30.20F
MOUNT WERNER   NOT AVBL
STEAMBOAT SPGS MOSUNNY   73  47  39 W6        30.23F
WALDEN         PTSUNNY   63  46  55 NW5       30.34F
$$

COZ006>008-011-062300-
...WEST CENTRAL VALLEYS...

CITY           SKY/WX    TMP DP  RH WIND       PRES   REMARKS
GRAND JUNCTION PTSUNNY   80  42  25 E7        30.06F
MONTROSE       MOSUNNY   83  51  33 NW8       30.16F
EAGLE          PTSUNNY   63  57  82 NE5       30.27F
RIFLE          PTSUNNY   81  48  31 MISG      30.14F
DELTA          MOSUNNY   87  47  25 E7        30.12F
NUCLA          MOSUNNY   82  45  26 N9        30.17F
$$

COZ017>023-064>068-062300-
...SOUTHWEST COLORADO...

CITY           SKY/WX    TMP DP  RH WIND       PRES   REMARKS
DURANGO        LGT RAIN  66  53  63 W5        30.21R
CORTEZ         SUNNY     88  41  19 NW18G25   30.13F
PAGOSA SPRINGS TSTM      65  50  57 NE5       30.29S
TELLURIDE      PTSUNNY   70  39  31 W9        30.40F
WOLF CREEK PAS NOT AVBL
$$

COZ009-010-012-014-032>034-037-058>063-062300-
...CENTRAL COLORADO...

CITY           SKY/WX    TMP DP  RH WIND       PRES   REMARKS
ASPEN          CLOUDY    67  49  52 VRB3      30.33S
BUENA VISTA    PTSUNNY   68  49  50 NE7       30.32F
COPPER MTN     CLOUDY    54  43  66 S8        30.62S
BERTHOUD PASS  HAZE      41  32  70 SE7       30.66R THUNDER VSB<1/4
COTTONWOOD PAS NOT AVBL
GUNNISON       PTSUNNY   66  46  48 N15       30.34F
KREMMLING      PTSUNNY   70  46  43 NE7G20    30.30R THUNDER
LEADVILLE      CLOUDY    53  41  63 NW9       30.48R
MONARCH PASS   RAIN      46  45  93 NE7       30.71R
SALIDA         PTSUNNY   69  53  56 E17G23    30.37S
SUNLIGHT       PTSUNNY   57  52  82 NE5       30.56F
WILKERSON PASS RAIN      45  43  93 E7        30.61R VSB 1/4
$$

COZ069>075-062300-
...SAN LUIS VALLEY/SANGRE DE CRISTO MOUNTAINS...

CITY           SKY/WX    TMP DP  RH WIND       PRES   REMARKS
ALAMOSA        PTSUNNY   75  49  39 SE17      30.25F
LA VETA PASS   RAIN      48  46  93 MISG      30.50S VSB<1/4
SAGUACHE       NOT AVBL
$$

COZ035-036-038>040-062300-
...NORTHERN COLORADO FRONT RANGE...

CITY           SKY/WX    TMP DP  RH WIND       PRES   REMARKS
DENVER INTL AP CLOUDY    62  55  77 NE12      30.28S
DMNS CITY PARK   N/A     61  57  89 NE9       30.28S
AURORA         CLOUDY    61  57  86 E10       30.30R
FRONT RANGE AP CLOUDY    61  55  82 NE10      30.29S
ERIE MUNI ARPT LGT RAIN  61  58  89 E6        30.28S
BOULDER MUN AP DRIZZLE   59  59 100 CALM      30.29R
CENTENNIAL     CLOUDY    59  57  93 E8        30.30S FOG
BROOMFIELD     LGT RAIN  61  57  88 NE7       30.31R
FORT COLLINS   CLOUDY    66  55  68 E9        30.28S
LONGMONT       CLOUDY    64  60  86 CALM      30.29S
$$

COZ041-046-047-076>085-087-088-062300-
...PIKES PEAK/PALMER DIVIDE AND SOUTHERN FOOTHILLS...

CITY           SKY/WX    TMP DP  RH WIND       PRES   REMARKS
COLO. SPRINGS  CLOUDY    62  55  77 NE23      30.29R
A. F. ACADEMY  LGT RAIN  62  55  77 N13       30.30S
ELLICOTT       CLOUDY   N/A N/A N/A MISG      30.29S
FALCON         LGT RAIN  56  55  97 NE13      30.34F
FORT CARSON    LGT RAIN  61  59  92 NE9       30.28R
LIMON          CLOUDY    64  53  67 N14       30.27S
MONUMENT HILL  CLOUDY    54  54 100 MISG      30.35S FOG
TRINIDAD       LGT RAIN  64  61  90 E10       30.24F
$$

COZ042>045-048>051-090-091-062300-
...NORTHEAST COLORADO...

CITY           SKY/WX    TMP DP  RH WIND       PRES   REMARKS
GREELEY ARPT   PTSUNNY   68  55  64 E9        30.26S
AKRON          CLOUDY    67  54  63 N15       30.23F HAZE
BURLINGTON     PTSUNNY   72  55  55 NE20      30.18F
WRAY           CLOUDY    74  53  47 N13       30.18S HAZE
STERLING       CLOUDY    70  54  56 NE9         N/A  HAZE
HOLYOKE        CLOUDY    73  52  46 NE16      30.19S HAZE
FORT MORGAN    CLOUDY    68  53  59 NE12      30.24F HAZE
$$

COZ086-089-092>099-062300-
...SOUTHEAST COLORADO...

CITY           SKY/WX    TMP DP  RH WIND       PRES   REMARKS
PUEBLO         LGT RAIN  70  59  68 E20       30.20R
LA JUNTA       CLOUDY    73  58  59 NE16      30.18S
LAMAR          CLOUDY    73  58  59 N15G23    30.13F
SPRINGFIELD      N/A     65  61  87 N20       30.16S
$$


USA.gov is the U.S. government's official web portal to all federal, state and local government web resources and services.